Wind_Speed
32 30 28 28 28 28 27 26 25 24 23 20 19 18 15 12 11 11 9 8 7 7 8 9 10 10 11 11 11 12 12 13 13 14 15 16 17 18 19 19 20 20 21 22
31 31 31 31 30 30 30 27 26 26 26 23 22 20 19 15 13 12 11 9 9 9 10 11 11 12 12 13 13 13 14 15 15 16 17 18 19 19 20 21 22 22 23 23
31 30 31 32 31 31 29 28 28 28 26 25 24 21 18 16 13 13 11 11 11 10 11 11 12 13 14 15 15 15 15 16 17 18 19 19 21 22 22 23 24 24 25 26
32 30 30 28 30 29 29 29 29 28 27 27 26 23 20 17 15 14 12 13 12 12 12 13 14 14 15 16 16 16 17 17 17 19 21 21 22 23 24 24 25 26 27 28
30 30 29 27 27 27 27 28 29 29 26 26 26 24 21 18 15 14 13 12 12 13 15 15 16 16 17 17 18 18 18 19 19 21 22 23 24 25 26 27 28 28 29 30
28 30 28 25 26 26 28 28 28 28 26 25 24 24 21 18 17 15 14 14 15 16 17 17 17 18 19 20 20 20 21 21 22 23 23 24 25 26 28 28 28 28 28 29
27 27 26 24 26 27 28 27 27 28 28 28 26 23 20 19 17 17 17 16 16 17 17 18 19 19 20 21 22 23 23 24 24 24 24 25 25 27 28 28 29 30 31 31
24 25 24 23 24 25 28 28 28 28 28 27 25 23 22 20 19 18 17 17 18 18 18 20 21 21 21 22 23 24 25 26 26 27 26 26 27 27 28 29 31 32 33 33
22 22 22 22 22 23 24 25 26 27 26 27 27 24 22 21 20 19 18 18 18 19 20 21 22 22 23 24 26 26 26 27 27 27 27 28 29 29 31 32 33 33 34 35
19 20 20 20 21 21 21 23 24 23 23 24 23 22 21 21 20 19 18 19 20 21 21 22 23 24 24 26 28 28 28 28 28 28 29 30 31 32 33 34 34 35 36 36
16 17 17 16 18 19 18 20 20 19 19 20 19 18 18 17 17 17 19 20 21 20 21 23 24 25 26 27 28 29 29 30 30 30 30 32 33 34 35 35 36 36 37 38
13 13 14 14 14 15 15 15 14 14 14 15 15 16 15 15 16 17 19 19 20 21 22 24 25 26 27 28 29 30 32 33 33 34 34 35 36 37 38 37 38 39 39 40
10 10 11 12 12 12 12 12 11 12 12 13 13 14 14 15 17 18 19 20 21 21 22 23 24 26 27 29 30 30 32 33 34 35 36 37 38 38 38 39 39 40 41 42
11 10 10 11 11 10 10 10 10 11 12 13 13 14 15 17 18 19 19 20 22 22 23 24 25 26 27 27 29 30 32 33 34 35 36 37 38 38 40 40 41 41 41 42
10 10 9 9 9 10 9 8 9 11 12 13 13 14 15 15 16 17 18 19 21 22 23 24 25 26 27 28 29 30 32 33 34 35 37 38 39 40 40 41 42 42 43 44
9 9 10 9 9 10 10 10 10 11 11 12 12 13 13 14 15 17 19 20 21 23 24 25 26 27 28 29 31 32 33 35 36 38 39 41 41 42 43 44 44 45 46 47
10 10 10 10 9 9 9 10 9 10 11 12 13 13 15 16 17 18 20 21 23 24 26 26 27 28 29 31 32 34 36 37 38 40 41 42 43 43 44 45 46 46 46 47
9 9 10 10 10 9 10 10 10 11 12 13 14 15 16 17 18 19 21 22 23 24 26 27 29 30 31 32 34 35 37 38 40 41 42 43 44 45 45 45 46 46 46 47
10 10 10 10 10 9 10 11 12 13 14 15 16 17 18 19 20 20 22 23 24 26 27 29 30 32 33 34 35 37 38 40 41 42 43 43 44 45 45 45 45 46 46 47
11 11 11 10 11 11 12 13 14 15 16 17 18 19 20 21 22 23 25 26 27 28 29 30 32 34 35 36 37 39 40 41 42 42 43 44 44 44 44 45 46 46 46 46
11 11 11 12 12 13 13 14 15 16 18 19 20 21 22 23 24 26 27 28 29 31 32 33 35 36 37 38 39 40 40 41 42 42 43 43 43 44 44 44 44 44 44 44
11 12 13 13 14 15 16 16 18 19 20 21 22 24 25 26 27 28 29 30 32 33 34 35 37 37 38 39 39 39 40 41 42 42 42 42 42 42 41 40 40 40 39 39
13 14 15 16 16 17 18 19 20 21 22 23 25 26 27 28 29 30 31 32 33 34 35 36 36 37 38 38 39 40 41 41 41 41 40 40 39 38 37 37 36 36 36 36
16 16 17 18 19 20 21 21 22 23 25 26 27 28 29 29 30 31 32 32 33 34 35 36 37 37 38 39 40 40 40 39 39 38 37 36 35 34 34 33 32 33 33 33
17 17 18 19 20 21 22 23 24 25 26 27 27 28 29 30 31 32 33 33 34 35 36 37 37 37 38 38 38 38 37 37 36 34 34 33 31 31 30 30 29 29 29 28
18 18 19 20 21 22 23 24 25 26 27 27 28 29 30 31 32 32 33 34 35 35 35 35 36 36 36 36 35 35 34 33 32 31 30 29 28 27 27 27 27 26 26 24
19 20 21 22 23 24 25 25 26 27 27 28 29 29 30 31 32 32 33 34 33 33 33 33 33 33 34 33 32 31 30 29 28 27 26 26 26 25 25 25 24 24 23 21
Wind_Direction
247 248 248 248 247 249 251 255 260 262 264 266 271 275 275 272 271 264 256 242 237 236 230 230 229 228 225 223 223 223 223 225 228 229 232 234 238 241 243 247 251 255 259 262
247 249 251 250 250 250 251 252 258 260 259 262 268 271 273 273 269 268 259 248 243 241 237 234 232 232 232 232 233 233 235 238 238 239 241 243 246 248 251 253 255 258 261 265
251 252 253 248 248 248 248 252 258 261 262 261 265 266 270 269 263 269 259 251 247 241 234 235 236 236 236 238 239 239 242 245 246 247 248 250 252 254 256 258 259 261 264 266
253 253 251 247 247 248 249 252 255 260 261 262 262 260 261 262 262 260 263 252 244 245 242 238 238 239 240 242 243 245 248 251 254 253 254 257 258 258 258 260 262 263 266 268
251 251 250 247 249 250 252 251 252 257 259 257 259 258 259 262 260 257 258 255 250 248 245 242 241 242 244 246 247 249 251 254 257 257 260 260 261 260 261 262 265 267 270 272
251 249 250 248 248 250 249 249 251 255 258 259 260 261 257 255 256 257 253 254 256 255 249 244 244 245 247 250 252 253 254 255 258 260 261 262 264 264 264 267 270 271 271 273
249 250 253 253 252 250 249 249 251 255 256 258 258 257 251 250 250 253 251 253 255 253 247 245 245 247 250 254 255 257 257 258 260 263 264 265 266 267 269 271 272 271 273 274
248 252 255 253 253 253 252 251 252 253 254 254 253 252 253 251 250 254 249 253 258 256 253 250 250 251 254 259 259 258 260 261 261 263 266 269 271 271 272 274 273 274 275 276
249 254 257 254 254 257 254 252 254 253 254 254 253 257 255 249 250 250 247 251 254 255 258 257 257 259 259 261 261 262 262 262 264 265 268 270 272 272 273 275 276 276 277 278
250 254 258 255 253 255 255 251 255 253 253 254 255 253 253 244 246 249 248 250 256 259 260 260 261 263 264 264 262 260 263 267 272 272 272 274 274 275 277 278 279 280 279 279
254 255 258 257 257 256 256 252 253 252 250 254 259 256 250 242 239 241 249 255 258 260 263 264 264 264 265 267 267 266 267 269 272 273 273 277 278 279 280 281 282 281 281 280
252 253 260 264 258 257 255 255 251 247 251 252 249 249 247 241 241 247 253 257 260 260 262 264 265 266 268 270 269 270 268 270 272 274 277 278 280 281 281 281 283 283 282 282
252 250 251 253 256 255 256 257 252 251 251 250 246 246 246 248 250 252 254 256 259 262 264 265 266 267 269 269 269 271 271 271 273 276 277 278 280 281 283 284 284 284 283 283
251 250 247 249 254 256 257 254 253 251 250 247 244 247 251 253 254 255 257 259 261 263 266 268 269 270 271 273 274 274 275 277 276 278 279 280 281 283 285 285 284 283 284 284
250 251 250 251 254 256 258 255 252 251 253 255 254 254 255 258 260 262 263 265 266 267 268 269 271 272 274 276 277 278 278 280 281 282 282 283 284 285 285 285 284 283 284 284
254 253 256 258 258 260 262 259 256 252 253 258 260 259 261 264 266 268 268 269 270 271 272 274 274 276 277 278 279 280 281 282 282 284 284 284 285 286 286 286 286 285 286 286
247 248 252 255 258 258 258 255 252 256 260 264 267 270 269 271 272 272 272 273 273 274 275 276 278 279 280 281 282 282 283 284 284 285 285 286 286 286 286 286 287 287 287 288
240 249 255 262 264 264 263 261 262 264 267 270 273 276 276 276 277 277 279 281 281 281 282 283 283 283 284 284 285 285 285 285 285 285 285 285 286 286 286 287 287 287 288 288
242 248 255 260 260 262 264 265 267 269 271 273 276 279 280 280 281 282 283 283 283 284 285 286 287 287 287 288 288 287 287 286 286 286 286 287 288 288 288 288 288 288 288 288
243 249 254 259 260 266 271 273 274 275 276 277 280 282 285 285 286 287 287 287 288 288 288 288 289 289 289 289 289 289 288 288 288 288 288 288 289 289 289 288 288 288 288 289
252 255 257 258 262 268 273 276 278 279 279 281 282 284 286 287 289 289 290 289 290 290 291 291 291 291 290 290 290 290 290 290 290 290 291 290 290 290 291 291 290 290 291 291
254 261 262 261 265 271 276 279 282 283 283 284 286 287 288 289 290 290 290 291 291 292 292 293 292 292 291 292 292 292 292 292 292 292 292 292 291 292 292 292 292 292 293 293
259 264 267 268 272 277 280 283 285 287 288 288 290 291 292 292 292 293 294 294 295 295 295 295 295 295 294 294 294 294 294 294 293 293 293 292 292 292 293 293 293 293 294 295
265 268 270 273 275 279 283 286 288 289 290 291 292 293 294 294 295 296 296 297 297 297 296 297 296 296 295 296 296 296 296 295 295 294 294 293 293 293 293 294 294 296 297 299
266 271 274 277 280 283 285 288 289 290 291 293 294 295 295 296 297 298 298 299 299 299 298 298 299 298 298 298 297 297 296 295 294 294 294 294 294 294 295 296 297 298 300 302
269 273 277 279 282 285 287 291 292 294 294 295 295 297 297 298 299 299 300 301 301 301 301 301 301 300 300 299 299 298 297 296 296 295 295 294 295 297 297 297 299 300 301 302
273 277 279 282 284 287 290 292 293 294 294 295 296 297 299 300 301 301 302 303 303 303 303 303 304 304 303 302 300 299 298 298 298 296 295 296 297 298 298 298 299 301 302 302
Height
5803 5806 5808 5810 5812 5813 5814 5815 5816 5817 5818 5820 5820 5821 5822 5822 5823 5824 5825 5824 5825 5826 5827 5828 5829 5830 5832 5833 5834 5835 5836 5838 5839 5841 5842 5843 5844 5845 5846 5847 5847 5847 5847 5847
5797 5800 5801 5803 5805 5807 5808 5809 5810 5811 5812 5814 5815 5816 5817 5818 5819 5820 5821 5821 5822 5822 5823 5824 5825 5827 5828 5829 5831 5832 5833 5834 5836 5837 5838 5839 5839 5840 5841 5841 5841 5841 5841 5840
5790 5792 5793 5797 5799 5800 5802 5804 5805 5805 5807 5807 5809 5810 5811 5813 5814 5816 5817 5817 5818 5819 5819 5820 5822 5823 5824 5825 5826 5828 5829 5830 5831 5832 5832 5833 5834 5834 5834 5834 5834 5834 5833 5833
5782 5785 5786 5792 5791 5793 5795 5797 5797 5798 5800 5801 5803 5804 5806 5807 5809 5810 5811 5812 5813 5814 5815 5816 5818 5819 5820 5821 5822 5823 5824 5825 5825 5826 5826 5826 5826 5826 5826 5826 5827 5826 5825 5825
5775 5776 5779 5784 5785 5787 5788 5789 5790 5791 5793 5795 5796 5798 5800 5802 5803 5804 5805 5806 5807 5809 5810 5811 5812 5814 5815 5816 5817 5818 5818 5819 5819 5819 5819 5818 5819 5819 5819 5819 5818 5817 5817 5816
5768 5769 5772 5777 5779 5779 5782 5782 5784 5785 5787 5788 5789 5791 5794 5795 5797 5798 5799 5801 5802 5803 5804 5805 5806 5807 5809 5810 5810 5811 5811 5812 5812 5812 5812 5811 5811 5811 5811 5810 5810 5809 5809 5807
5761 5763 5766 5769 5771 5773 5776 5778 5778 5779 5781 5782 5783 5785 5787 5788 5790 5792 5794 5795 5796 5797 5799 5800 5800 5801 5802 5803 5804 5804 5804 5804 5804 5804 5804 5804 5803 5803 5803 5802 5801 5801 5800 5798
5755 5758 5762 5763 5764 5766 5768 5769 5771 5772 5774 5776 5777 5778 5779 5782 5784 5786 5787 5789 5790 5791 5792 5793 5793 5794 5795 5796 5796 5796 5797 5796 5797 5796 5796 5795 5795 5795 5794 5793 5792 5791 5790 5788
5751 5754 5755 5756 5757 5758 5759 5762 5764 5765 5767 5769 5771 5772 5773 5775 5778 5780 5782 5783 5784 5785 5786 5786 5787 5788 5788 5789 5789 5788 5788 5788 5788 5787 5788 5787 5787 5786 5785 5784 5782 5781 5780 5778
5745 5747 5748 5749 5750 5752 5753 5755 5757 5759 5761 5762 5764 5765 5766 5768 5771 5774 5776 5777 5778 5779 5779 5780 5780 5780 5781 5780 5779 5780 5780 5779 5778 5778 5778 5778 5777 5776 5775 5773 5771 5770 5768 5767
5740 5741 5742 5744 5746 5747 5747 5749 5751 5752 5754 5756 5757 5759 5761 5763 5765 5767 5769 5770 5771 5772 5772 5772 5772 5772 5772 5772 5771 5771 5770 5770 5769 5768 5768 5767 5767 5766 5764 5763 5761 5759 5757 5755
5736 5737 5738 5740 5741 5742 5743 5745 5746 5747 5748 5750 5752 5753 5755 5757 5759 5761 5763 5763 5764 5765 5766 5766 5765 5765 5764 5764 5763 5762 5762 5761 5761 5760 5759 5758 5757 5755 5753 5751 5749 5747 5745 5743
5732 5732 5733 5735 5737 5737 5739 5740 5741 5743 5745 5746 5747 5749 5749 5752 5754 5755 5755 5756 5757 5757 5758 5758 5758 5758 5757 5756 5755 5754 5753 5752 5751 5750 5748 5747 5746 5744 5742 5740 5737 5735 5732 5730
5728 5729 5730 5731 5733 5734 5735 5736 5738 5739 5741 5742 5743 5744 5746 5747 5748 5748 5749 5750 5750 5750 5750 5750 5750 5749 5749 5748 5747 5746 5744 5743 5741 5740 5738 5736 5734 5732 5730 5727 5725 5722 5719 5716
5724 5726 5727 5728 5730 5731 5732 5733 5734 5736 5737 5738 5739 5740 5741 5741 5742 5742 5743 5743 5743 5743 5742 5742 5742 5741 5740 5739 5738 5737 5735 5734 5731 5730 5728 5725 5723 5720 5718 5715 5712 5709 5706 5703
5721 5723 5724 5725 5726 5727 5728 5729 5731 5732 5733 5733 5734 5735 5735 5736 5736 5737 5737 5737 5737 5736 5735 5735 5734 5733 5732 5730 5729 5727 5725 5724 5721 5719 5716 5714 5711 5708 5705 5702 5699 5695 5692 5689
5718 5719 5721 5722 5723 5724 5725 5725 5726 5727 5728 5729 5730 5730 5730 5730 5731 5730 5730 5730 5730 5729 5728 5726 5725 5724 5723 5721 5719 5717 5715 5713 5710 5707 5704 5701 5698 5695 5691 5688 5684 5681 5677 5673
5715 5716 5717 5718 5719 5720 5721 5722 5722 5723 5724 5724 5725 5725 5725 5725 5725 5724 5723 5723 5722 5721 5719 5718 5716 5714 5712 5710 5708 5706 5704 5701 5698 5695 5691 5688 5685 5681 5677 5673 5670 5666 5662 5658
5711 5713 5714 5715 5715 5716 5717 5718 5718 5719 5719 5719 5719 5719 5719 5719 5718 5717 5716 5715 5714 5712 5711 5709 5706 5704 5702 5699 5696 5694 5691 5688 5685 5681 5678 5674 5670 5667 5663 5659 5655 5651 5647 5643
5708 5709 5710 5711 5712 5713 5713 5714 5714 5714 5714 5714 5713 5713 5712 5711 5710 5709 5708 5707 5705 5703 5701 5698 5696 5693 5690 5687 5684 5681 5678 5674 5671 5667 5664 5660 5656 5652 5648 5644 5641 5637 5633 5629
5704 5705 5707 5707 5708 5708 5709 5709 5709 5709 5708 5708 5707 5706 5705 5704 5703 5701 5699 5697 5695 5693 5690 5687 5684 5681 5678 5675 5672 5668 5665 5661 5657 5654 5650 5646 5642 5638 5634 5630 5626 5622 5618 5614
5700 5701 5702 5702 5703 5703 5703 5703 5703 5703 5702 5701 5700 5699 5698 5696 5694 5692 5690 5687 5685 5682 5679 5676 5673 5669 5666 5662 5659 5655 5651 5648 5644 5640 5636 5632 5628 5624 5620 5616 5613 5609 5605 5601
5695 5696 5697 5697 5697 5697 5697 5697 5696 5696 5695 5693 5692 5690 5688 5687 5684 5682 5680 5677 5674 5671 5667 5664 5660 5657 5653 5649 5645 5642 5638 5634 5630 5626 5622 5619 5615 5611 5608 5604 5600 5597 5593 5589
5691 5691 5692 5692 5692 5691 5691 5690 5689 5688 5687 5685 5683 5681 5679 5677 5675 5672 5669 5666 5663 5659 5656 5652 5648 5645 5641 5637 5633 5628 5625 5621 5617 5613 5610 5606 5603 5600 5596 5593 5589 5586 5582 5578
5686 5686 5686 5686 5685 5685 5684 5683 5681 5680 5678 5676 5674 5672 5669 5667 5664 5662 5658 5655 5652 5648 5644 5640 5636 5632 5628 5624 5620 5616 5612 5608 5605 5602 5598 5595 5592 5589 5586 5582 5579 5576 5572 5568
5680 5680 5680 5679 5678 5678 5676 5675 5673 5671 5669 5667 5665 5662 5660 5657 5654 5651 5648 5644 5641 5637 5633 5629 5624 5620 5616 5612 5608 5604 5600 5597 5594 5591 5588 5585 5582 5580 5577 5574 5571 5567 5564 5561
5673 5673 5673 5672 5671 5670 5668 5666 5665 5663 5661 5658 5656 5653 5650 5647 5644 5641 5637 5633 5630 5626 5622 5618 5614 5610 5606 5601 5597 5594 5590 5587 5584 5581 5579 5576 5574 5571 5568 5565 5563 5560 5557 5554